Erie, PA

12:47 PM EDT on June 29, 2017 (GMT -0400)
Erie International

Weather History for KERI - February, 2012

Change the Weather History Date:

Sunday, February 19, 2012

  Actual Average Record
Temperature  
Mean Temperature 30 °F 29 °F  
Max Temperature 31 °F 36 °F 65 °F (1948)
Min Temperature 28 °F 21 °F -10 °F (2015)
Degree Days  
Heating Degree Days 35 36  
Month to date heating degree days 604 710  
Since 1 July heating degree days 3412 4048  
Cooling Degree Days 0 0  
Month to date cooling degree days 0 0  
Year to date cooling degree days 0 0  
Moisture  
Dew Point 18 °F    
Average Humidity 64    
Maximum Humidity 69    
Minimum Humidity 58    
Precipitation  
Precipitation 0.00 in 0.09 in 1.65 in (1981)
Month to date precipitation 0.58 1.58  
Year to date precipitation 5.09 4.53  
Snow  
Snow 0.00 in 0.60 in - ()
Month to date snowfall 7.1 12.8  
Since 1 July snowfall 43.6 78.6  
Snow Depth 0.00 in    
Sea Level Pressure  
Sea Level Pressure 30.15 in    
Wind  
Wind Speed 7 mph (North)    
Max Wind Speed 12 mph    
Max Gust Speed 14 mph    
Visibility 10 miles    
Events      
T = Trace of Precipitation, MM = Missing Value Source: NWS Daily Summary

Daily Weather History Graph

Daily Weather History Graph

Search for Another Location

Airport or City:

Trip Planner

Search our weather history database for the weather conditions in past years. The results will help you decide how hot, cold, wet, or windy it might be!

Date:

Astronomy

Feb. 19, 2012 Rise Set
Actual Time 7:11 AM EST 5:57 PM EST
Civil Twilight 6:43 AM EST 6:26 PM EST
Nautical Twilight 6:10 AM EST 6:59 PM EST
Astronomical Twilight 5:38 AM EST 7:31 PM EST
Moon 5:33 AM EST (2/19) 3:56 PM EST (2/19)
Length of Visible Light 11h 43m
Length of Day
10h 46m
Waning Crescent, 5% of the Moon is Illuminated
Feb 19
Waning Crescent
Feb 21
New
Feb 29
First Quarter
Mar 8
Full
Mar 14
Last Quarter

Hourly Weather History & Observations

Time (EST) Temp. Windchill Dew Point Humidity Pressure Visibility Wind Dir Wind Speed Gust Speed Precip Events Conditions
12:51 AM 28.9 °F 22.8 °F 19.0 °F 67% 30.19 in 10.0 mi NNW 5.8 mph - N/A   Overcast
1:51 AM 28.9 °F 25.2 °F 19.0 °F 67% 30.20 in 10.0 mi North 3.5 mph - N/A   Overcast
2:51 AM 28.9 °F 25.2 °F 19.0 °F 67% 30.21 in 10.0 mi NW 3.5 mph - N/A   Overcast
3:51 AM 28.9 °F 23.9 °F 19.0 °F 67% 30.19 in 10.0 mi North 4.6 mph - N/A   Overcast
4:51 AM 28.9 °F 23.9 °F 18.0 °F 64% 30.19 in 10.0 mi North 4.6 mph - N/A   Overcast
5:26 AM 28.4 °F 21.2 °F 17.6 °F 64% 30.16 in 10.0 mi North 6.9 mph - N/A   Overcast
5:39 AM 28.4 °F 22.2 °F 17.6 °F 64% 30.16 in 10.0 mi North 5.8 mph - N/A   Overcast
5:51 AM 28.9 °F 21.9 °F 18.0 °F 64% 30.19 in 10.0 mi North 6.9 mph - N/A   Overcast
6:00 AM 28.4 °F 22.2 °F 17.6 °F 64% 30.15 in 10.0 mi North 5.8 mph - N/A   Overcast
6:37 AM 28.4 °F 20.4 °F 19.4 °F 69% 30.15 in 10.0 mi North 8.1 mph - N/A   Overcast
6:51 AM 28.0 °F 21.7 °F 18.0 °F 66% 30.18 in 10.0 mi North 5.8 mph - N/A   Overcast
7:20 AM 28.4 °F 20.4 °F 17.6 °F 64% 30.15 in 10.0 mi North 8.1 mph - N/A   Overcast
7:51 AM 28.9 °F 22.8 °F 19.0 °F 67% 30.18 in 10.0 mi North 5.8 mph - N/A   Overcast
8:51 AM 28.9 °F 21.9 °F 17.1 °F 61% 30.19 in 10.0 mi North 6.9 mph - N/A   Overcast
9:25 AM 28.4 °F 23.3 °F 17.6 °F 64% 30.16 in 10.0 mi North 4.6 mph - N/A   Overcast
9:51 AM 30.0 °F 24.1 °F 17.1 °F 59% 30.19 in 10.0 mi NNE 5.8 mph - N/A   Overcast
10:01 AM 30.2 °F 24.3 °F 17.6 °F 60% 30.16 in 10.0 mi North 5.8 mph - N/A   Overcast
10:51 AM 30.0 °F 23.2 °F 17.1 °F 59% 30.19 in 10.0 mi North 6.9 mph - N/A   Overcast
11:51 AM 30.0 °F 22.4 °F 18.0 °F 61% 30.19 in 10.0 mi North 8.1 mph - N/A   Overcast
12:51 PM 30.0 °F 24.1 °F 17.1 °F 59% 30.16 in 10.0 mi North 5.8 mph - N/A   Overcast
1:51 PM 30.9 °F 24.3 °F 18.0 °F 59% 30.14 in 10.0 mi North 6.9 mph - N/A   Overcast
2:51 PM 30.0 °F 22.4 °F 17.1 °F 59% 30.13 in 10.0 mi North 8.1 mph - N/A   Overcast
3:04 PM 30.2 °F 23.4 °F 17.6 °F 60% 30.10 in 10.0 mi North 6.9 mph - N/A   Overcast
3:23 PM 30.2 °F 22.6 °F 17.6 °F 60% 30.10 in 10.0 mi North 8.1 mph - N/A   Overcast
3:42 PM 28.4 °F 19.7 °F 19.4 °F 69% 30.10 in 10.0 mi NNE 9.2 mph - N/A   Overcast
3:51 PM 28.9 °F 21.1 °F 19.9 °F 69% 30.12 in 10.0 mi NNE 8.1 mph - N/A   Mostly Cloudy
4:03 PM 30.2 °F 21.9 °F 19.4 °F 64% 30.09 in 10.0 mi ENE 9.2 mph - N/A   Scattered Clouds
4:51 PM 30.0 °F 21.7 °F 17.1 °F 59% 30.11 in 10.0 mi NNE 9.2 mph - N/A   Mostly Cloudy
5:51 PM 28.0 °F 20.0 °F 18.0 °F 66% 30.11 in 10.0 mi NNE 8.1 mph - N/A   Mostly Cloudy
6:51 PM 28.0 °F 20.0 °F 18.0 °F 66% 30.13 in 10.0 mi NNE 8.1 mph - N/A   Partly Cloudy
7:40 PM 30.2 °F 21.3 °F 17.6 °F 60% 30.11 in 10.0 mi NNE 10.4 mph - N/A   Overcast
7:51 PM 30.0 °F 21.7 °F 18.0 °F 61% 30.14 in 10.0 mi NNE 9.2 mph - N/A   Overcast
8:51 PM 30.0 °F 22.4 °F 18.0 °F 61% 30.14 in 10.0 mi NE 8.1 mph - N/A   Overcast
9:51 PM 30.0 °F 23.2 °F 18.0 °F 61% 30.14 in 10.0 mi NNE 6.9 mph - N/A   Overcast
10:51 PM 30.0 °F 21.7 °F 21.0 °F 69% 30.16 in 10.0 mi North 9.2 mph - N/A   Overcast
11:51 PM 30.2 °F 21.9 °F 21.2 °F 69% 30.13 in 10.0 mi NE 9.2 mph - N/A   Overcast